[[{"header":{"parameterUnit":"m.s-1","parameterCategory":1,"la1":30.2991,"la2":30.254,"lo1":-89.0895,"lo2":-89.0444,"dy":0.0017,"dx":0.0017,"nx":28,"ny":28,"refTime":"2025-08-12T21:00:00:Z","depth":0,"parameterNumber":2,"parameterNumberName":"U-component_of_WINDS"},"data":[0,0,0,0,0,0,0,0,0,0,0,0,0,0,0,0,0,0,0,0,0,0,0,0,0,0,0,0,0,0,0,0,0,0,0,0,0,0,0,0,0,0,0,0,0,0,0,0,0,0,0,0,0,0,0,0,0,0,3.3454,3.3456,0,3.3651,3.3654,3.3656,3.3644,3.3642,3.3639,3.3636,3.3846,3.3854,3.3862,0,0,0,0,0,0,0,0,0,0,0,0,0,3.3072,3.3079,3.3453,3.3456,3.3458,3.3651,3.3654,3.3656,3.3645,3.3641,3.3638,3.3635,3.3843,3.3853,3.3863,0,0,0,0,0,0,0,0,0,0,0,0,0,3.325,3.3081,3.3453,3.3476,3.348,3.365,3.3654,3.3657,3.3646,3.3641,3.3637,3.3633,3.384,3.3852,3.3864,3.4028,0,0,3.3902,3.3908,0,0,0,0,0,0,0,0,3.324,3.3264,3.347,3.3474,3.3479,3.3619,3.3596,3.3782,3.3647,3.3583,3.3636,3.3631,3.3774,3.3792,3.3839,3.4037,3.4046,3.3903,3.3911,3.3916,3.392,0,0,0,0,0,0,0,3.3228,3.3256,3.3532,3.3473,3.3479,3.3478,3.3498,3.3631,3.3701,3.3588,3.3588,3.3611,3.3776,3.3827,3.3843,3.4049,3.3903,3.3914,3.3922,3.3926,3.4391,3.4395,0,0,0,0,0,0,3.321,3.3246,3.3526,3.3538,3.3346,3.3488,3.3511,3.3578,3.3699,3.3713,3.3614,3.361,3.3808,3.3829,3.3851,3.4049,3.3916,3.3928,3.3935,3.4386,3.4392,3.4397,0,0,0,0,0,0,3.3201,3.3235,3.3518,3.3392,3.3428,3.3499,3.3575,3.3585,3.3635,3.3719,3.3732,3.3653,3.3805,3.3833,3.3983,3.4056,3.3933,3.3945,3.438,3.4388,3.4395,3.4446,0,0,0,0,0,0,3.319,3.3232,3.3293,3.3393,3.3434,3.3645,3.3579,3.3592,3.3656,3.3651,3.3759,3.3772,3.3804,3.3964,3.3995,3.4071,3.3954,3.4374,3.4384,3.4392,3.4438,3.4454,3.4468,0,0,0,0,0,3.3177,3.3302,3.3296,3.333,3.3512,3.3649,3.3673,3.3704,3.3662,3.3725,3.3778,3.3769,3.4043,3.398,3.4014,3.4095,3.437,3.4381,3.4391,3.4432,3.4451,3.4468,0,0,0,0,0,0,3.3212,3.3316,3.3311,3.3471,3.3551,3.3647,3.3727,3.3725,3.382,3.3812,3.385,3.3874,3.4024,3.4075,3.4002,3.4258,3.4201,3.4219,3.422,3.4239,3.4254,3.4238,3.3965,0,0,0,0,0,3.3238,3.3338,3.3424,3.3558,3.3598,3.3656,3.3716,3.3733,3.3819,3.3853,3.3918,3.4003,3.4108,3.4176,3.4278,3.4446,3.4469,3.4518,3.4533,3.4545,3.456,3.4652,3.4674,3.4433,3.4433,3.4433,0,0,3.3294,3.3363,3.3424,3.3567,3.363,3.3734,3.3684,3.3797,3.3875,3.3871,3.4015,3.4065,3.4163,3.4321,3.4395,3.4368,3.4632,3.4559,3.4568,3.4577,3.4665,3.4688,3.4708,3.4441,3.4439,3.4438,0,0,3.3448,3.351,3.3628,3.3692,3.3788,3.3825,3.3853,3.3949,3.3981,3.4126,3.4124,3.4219,3.4399,3.4468,3.4527,3.4705,3.4699,3.4737,3.4815,3.4904,3.4923,3.494,3.5002,3.5024,3.4752,3.4753,3.4753,0,3.3506,3.3661,3.3689,3.3802,3.3864,3.3862,3.3981,3.4043,3.4169,3.4213,3.4181,3.4405,3.4471,3.4645,3.4688,3.4736,3.477,3.4725,3.4917,3.4935,3.4951,3.5011,3.5035,3.4756,3.4756,3.4756,3.4755,0,3.3726,3.3834,3.3917,3.4035,3.4107,3.4223,3.427,3.434,3.435,3.4391,3.4538,3.4617,3.4733,3.4776,3.4789,3.4952,3.4932,3.4909,3.4851,3.4977,3.5034,3.5058,3.4762,3.476,3.4759,3.4758,0,0,3.391,3.4039,3.4069,3.4122,3.4226,3.4311,3.4427,3.4538,3.4597,3.4683,3.4781,3.4933,3.4911,3.4977,3.4998,3.5076,3.5211,3.5043,3.5046,3.507,3.5394,3.541,3.5437,3.5208,3.5212,3.5216,3.5385,0,3.4074,3.4276,3.4304,3.4484,3.4583,3.4581,3.4682,3.4758,3.48,3.4891,3.4938,3.5044,3.5008,3.5047,3.5124,3.5178,3.5276,3.5166,3.53,3.5305,3.5275,3.5467,3.5485,3.5641,3.5408,3.5412,3.5415,0,3.4293,3.4381,3.457,3.4659,3.4702,3.4791,3.4894,3.4982,3.5068,3.5093,3.5165,3.5176,3.5297,3.5235,3.5402,3.5327,3.5384,3.5418,3.5425,3.5438,3.5367,3.5485,3.5692,3.5715,3.5451,3.5448,3.5445,0,3.4406,3.4573,3.4706,3.4752,3.4859,3.4922,3.4971,3.5052,3.5116,3.5207,3.5249,3.5355,3.5412,3.5494,3.5533,3.5484,3.5698,3.5639,3.5722,3.5721,3.5767,3.5764,3.5986,3.5805,3.5805,3.5804,3.5804,0,3.4586,3.4702,3.4758,3.4841,3.4969,3.5001,3.5128,3.5175,3.5247,3.534,3.5346,3.5433,3.548,3.5574,3.5606,3.5739,3.5766,3.579,3.5797,3.5789,3.5785,3.5826,3.5816,3.5811,3.5809,3.5808,3.5807,0,3.4735,3.4777,3.4923,3.5011,3.5036,3.5127,3.5204,3.5285,3.5324,3.5441,3.5471,3.5534,3.5645,3.5692,3.583,3.5851,3.6003,3.6003,3.5973,3.5975,3.6055,3.6047,3.6311,3.6347,3.6143,3.6145,3.6147,0,3.4847,3.4934,3.5031,3.5092,3.5141,3.5239,3.5304,3.5338,3.5406,3.5509,3.5577,3.5688,3.5777,3.5955,3.6015,3.612,3.6122,3.6207,3.6138,3.6126,3.6122,3.6116,3.6124,3.622,3.6222,3.6224,3.6225,0,3.504,3.5056,3.5147,3.5246,3.5321,3.5401,3.548,3.553,3.5577,3.5652,3.5764,3.5833,3.5971,3.6081,3.6189,3.6241,3.6242,3.6246,3.6271,3.6263,3.6242,3.6253,3.6007,3.624,3.6238,3.6237,3.6236,3.6236,3.5174,3.525,3.533,3.5431,3.5492,3.5565,3.5643,3.5692,3.5784,3.5897,3.5913,3.6032,3.6116,3.626,3.6316,3.6412,3.639,3.6427,3.6436,3.6444,3.6448,3.6226,3.6432,3.6431,3.6431,3.6431,3.6431,0,3.5366,3.5416,3.5509,3.5616,3.5695,3.5685,3.5771,3.5838,3.5942,3.6019,3.6106,3.6234,3.634,3.6407,3.6514,3.6577,3.658,3.6604,3.6599,3.6611,3.6462,3.6429,3.6599,3.6599,3.6599,3.6599,3.6599,3.6599,3.5476,3.5605,3.563,3.579,3.584,3.5955,3.6004,3.6071,3.6132,3.6273,3.6359,3.6401,3.6474,3.6586,3.6683,3.67,3.6739,3.6764,3.678,3.6639,3.6622,3.6605,3.6574,3.6773,3.6773,3.6921,3.6923,3.6924]},{"header":{"parameterUnit":"m.s-1","parameterCategory":1,"la1":30.2991,"la2":30.254,"lo1":-89.0895,"lo2":-89.0444,"dy":0.0017,"dx":0.0017,"nx":28,"ny":28,"refTime":"2025-08-12T21:00:00:Z","depth":0,"parameterNumber":3,"parameterNumberName":"V-component_of_WINDS"},"data":[0,0,0,0,0,0,0,0,0,0,0,0,0,0,0,0,0,0,0,0,0,0,0,0,0,0,0,0,0,0,0,0,0,0,0,0,0,0,0,0,0,0,0,0,0,0,0,0,0,0,0,0,0,0,0,0,0,0,0.0755,0.0755,0,0.0783,0.0783,0.0783,0.0804,0.0804,0.0804,0.0805,0.0835,0.0836,0.0837,0,0,0,0,0,0,0,0,0,0,0,0,0,0.0719,0.0719,0.0755,0.0755,0.0755,0.0783,0.0783,0.0783,0.0804,0.0804,0.0805,0.0805,0.0835,0.0836,0.0837,0,0,0,0,0,0,0,0,0,0,0,0,0,0.0739,0.0719,0.0755,0.0769,0.077,0.0783,0.0783,0.0784,0.0804,0.0804,0.0805,0.0805,0.0835,0.0836,0.0837,0.0838,0,0,0.084,0.084,0,0,0,0,0,0,0,0,0.0738,0.0741,0.0766,0.0768,0.077,0.079,0.0782,0.0802,0.0804,0.0791,0.0805,0.0805,0.082,0.0822,0.0827,0.0839,0.084,0.084,0.0841,0.0841,0.0841,0,0,0,0,0,0,0,0.0737,0.0739,0.0766,0.0767,0.0769,0.0774,0.0777,0.0786,0.0804,0.0792,0.0794,0.0797,0.0821,0.0826,0.0828,0.0841,0.084,0.0841,0.0841,0.0842,0.0852,0.0851,0,0,0,0,0,0,0.0733,0.0738,0.0765,0.0767,0.0754,0.0774,0.0778,0.0783,0.0804,0.0807,0.0797,0.0798,0.0824,0.0827,0.0829,0.083,0.0841,0.0842,0.0842,0.0852,0.0852,0.0851,0,0,0,0,0,0,0.0732,0.0735,0.0764,0.0753,0.0757,0.0775,0.0781,0.0784,0.0789,0.0807,0.0811,0.0798,0.0825,0.0828,0.0835,0.0831,0.0842,0.0843,0.0852,0.0852,0.0851,0.0832,0,0,0,0,0,0,0.0731,0.0735,0.0735,0.0753,0.0757,0.0769,0.078,0.0784,0.079,0.0792,0.081,0.0813,0.0825,0.0833,0.0836,0.0833,0.0844,0.0853,0.0852,0.0852,0.0833,0.0831,0.0829,0,0,0,0,0,0.0729,0.073,0.0735,0.0739,0.0759,0.0769,0.0771,0.0785,0.079,0.0791,0.0802,0.0812,0.0831,0.0834,0.0837,0.0834,0.0853,0.0852,0.0852,0.0834,0.0832,0.0829,0,0,0,0,0,0,0.0714,0.0733,0.0739,0.0745,0.0755,0.0772,0.0774,0.0782,0.0792,0.0793,0.081,0.0813,0.0818,0.0827,0.0829,0.0834,0.0843,0.0843,0.0829,0.0826,0.0825,0.0823,0.0845,0,0,0,0,0,0.071,0.0717,0.0733,0.0737,0.0741,0.0756,0.0761,0.077,0.0782,0.0786,0.0798,0.0809,0.0817,0.0822,0.0831,0.0834,0.0837,0.0834,0.0832,0.083,0.083,0.083,0.0828,0.0849,0.0849,0.0849,0,0,0.0705,0.0716,0.0719,0.0734,0.0743,0.0748,0.076,0.0766,0.077,0.0788,0.0794,0.0803,0.0816,0.082,0.0823,0.0828,0.0824,0.0829,0.0827,0.0828,0.0829,0.0827,0.0825,0.0848,0.0849,0.0849,0,0,0.0697,0.0707,0.071,0.0717,0.073,0.0739,0.074,0.0755,0.0761,0.0767,0.0779,0.0784,0.0799,0.0807,0.0813,0.0804,0.0813,0.0806,0.0796,0.0796,0.0794,0.0793,0.0789,0.0787,0.0806,0.0806,0.0806,0,0.0689,0.0698,0.071,0.0715,0.072,0.0734,0.0736,0.0744,0.0758,0.0762,0.0766,0.0782,0.0792,0.0797,0.0795,0.08,0.08,0.0805,0.0793,0.0792,0.0791,0.0787,0.0786,0.0805,0.0805,0.0805,0.0805,0,0.0686,0.0692,0.0693,0.0705,0.071,0.0714,0.0726,0.073,0.0738,0.0746,0.0751,0.0763,0.0773,0.0775,0.0783,0.078,0.0783,0.079,0.08,0.0788,0.0784,0.0783,0.0803,0.0803,0.0804,0.0804,0,0,0.0672,0.0688,0.0689,0.0693,0.0706,0.0711,0.0714,0.0722,0.0724,0.0733,0.0736,0.0746,0.0751,0.0758,0.0767,0.0767,0.0757,0.0774,0.0775,0.077,0.0753,0.0747,0.0745,0.0763,0.0763,0.0762,0.0751,0,0.0666,0.0673,0.0682,0.0685,0.069,0.0701,0.0703,0.0711,0.0718,0.0723,0.0731,0.0737,0.0745,0.0749,0.0749,0.0758,0.0754,0.0759,0.0765,0.0765,0.0761,0.0743,0.0738,0.0727,0.075,0.075,0.075,0,0.0661,0.0667,0.067,0.068,0.0682,0.0684,0.0691,0.0696,0.0704,0.0709,0.0714,0.0723,0.0726,0.0733,0.0737,0.074,0.0743,0.0747,0.0747,0.0749,0.0757,0.0744,0.0724,0.0722,0.0748,0.0748,0.0748,0,0.0649,0.0659,0.0661,0.0664,0.0676,0.0677,0.0682,0.069,0.0694,0.07,0.0702,0.0708,0.0712,0.0716,0.0726,0.0731,0.0728,0.0737,0.0732,0.0731,0.0732,0.0731,0.0711,0.0733,0.0733,0.0733,0.0733,0,0.0642,0.0643,0.0655,0.0657,0.0658,0.0668,0.0668,0.0674,0.0681,0.0683,0.0693,0.0695,0.0708,0.0711,0.0718,0.0719,0.0721,0.0725,0.0727,0.0724,0.0723,0.0726,0.0727,0.0733,0.0733,0.0733,0.0733,0,0.063,0.0638,0.0641,0.0651,0.0653,0.0653,0.0661,0.0662,0.0669,0.0671,0.0672,0.0683,0.0686,0.0696,0.0703,0.0708,0.0706,0.071,0.0703,0.0704,0.0698,0.0699,0.068,0.0677,0.0701,0.07,0.07,0,0.0625,0.0626,0.0635,0.0636,0.064,0.0643,0.0646,0.0655,0.0657,0.0664,0.0664,0.0668,0.0672,0.0677,0.0685,0.069,0.0694,0.0686,0.0695,0.0691,0.0693,0.0692,0.0692,0.0685,0.0685,0.0685,0.0684,0,0.0615,0.0618,0.0621,0.0625,0.0627,0.0631,0.0636,0.0636,0.0646,0.0648,0.0651,0.0654,0.0659,0.0662,0.0667,0.0672,0.0679,0.0681,0.068,0.0678,0.0673,0.0674,0.0698,0.0682,0.0682,0.0683,0.0683,0.0683,0.0606,0.0606,0.0611,0.0614,0.0617,0.062,0.0621,0.0626,0.0629,0.0633,0.0638,0.064,0.0645,0.0652,0.0656,0.0657,0.0661,0.066,0.066,0.0659,0.0657,0.0672,0.0658,0.0658,0.0658,0.0658,0.0658,0,0.0596,0.0599,0.0601,0.0605,0.0607,0.0612,0.0616,0.0617,0.0618,0.0622,0.0624,0.0626,0.0629,0.0635,0.0638,0.0638,0.0641,0.0638,0.0638,0.0639,0.0654,0.0654,0.0635,0.0635,0.0635,0.0635,0.0635,0.0635,0.0591,0.0591,0.0594,0.0594,0.0598,0.0599,0.06,0.0602,0.0605,0.0606,0.0608,0.0612,0.0616,0.0619,0.0621,0.0622,0.0623,0.0619,0.0621,0.0636,0.0638,0.064,0.0641,0.0619,0.0619,0.0606,0.0606,0.0606]}]]